Meriden, CT

10:46 AM EDT on April 26, 2017 (GMT -0400)
Meriden Markham Municipal

Weather History for KMMK - January, 2014

Change the Weather History Date:

Friday, January 3, 2014

  Actual Average (KOXC) Record (KOXC)
Temperature  
Mean Temperature 4 °F -  
Max Temperature 12 °F 34 °F 59 °F (1998)
Min Temperature -5 °F 21 °F 0 °F (2014)
Degree Days  
Heating Degree Days 62    
Moisture  
Dew Point 0 °F    
Average Humidity 68    
Maximum Humidity 80    
Minimum Humidity 41    
Precipitation  
Precipitation 0.00 in - - ()
Sea Level Pressure  
Sea Level Pressure 29.97 in    
Wind  
Wind Speed 13 mph (NNW)    
Max Wind Speed 20 mph    
Max Gust Speed 32 mph    
Visibility 5 miles    
Events Snow    
Averages and records for this station are not official NWS values.
T = Trace of Precipitation, MM = Missing Value Source: NWS Daily Summary

Daily Weather History Graph

Daily Weather History Graph

Search for Another Location

Airport or City:

Trip Planner

Search our weather history database for the weather conditions in past years. The results will help you decide how hot, cold, wet, or windy it might be!

Date:

Astronomy

Jan. 03, 2014 Rise Set
Actual Time 7:17 AM EST 4:33 PM EST
Civil Twilight 6:46 AM EST 5:05 PM EST
Nautical Twilight 6:12 AM EST 5:39 PM EST
Astronomical Twilight 5:38 AM EST 6:13 PM EST
Moon 8:39 AM EST (1/3) 7:42 PM EST (1/3)
Length of Visible Light 10h 18m
Length of Day
9h 16m
Waxing Crescent, 8% of the Moon is Illuminated
Jan 3
Waxing Crescent
Jan 7
First Quarter
Jan 15
Full
Jan 24
Last Quarter
Jan 30
New

Hourly Weather History & Observations

Time (EST) Temp. Windchill Dew Point Humidity Pressure Visibility Wind Dir Wind Speed Gust Speed Precip Events Conditions
12:53 AM 9.0 °F -7.3 °F 3.0 °F 77% 29.75 in 0.8 mi North 13.8 mph 27.6 mph 0.00 in Snow Light Snow
1:46 AM 8.1 °F -9.0 °F 3.0 °F 80% 29.70 in 1.0 mi North 15.0 mph 26.5 mph 0.00 in Snow Light Snow
1:53 AM 8.1 °F -10.2 °F 3.0 °F 80% 29.72 in 0.8 mi North 17.3 mph 24.2 mph 0.00 in Snow Light Snow
2:53 AM 7.0 °F -8.3 °F 1.0 °F 77% 29.71 in 1.0 mi North 11.5 mph 32.2 mph 0.00 in Snow Light Snow
3:17 AM 7.0 °F -9.1 °F 1.0 °F 77% 29.69 in 0.8 mi North 12.7 mph 24.2 mph 0.00 in Snow Light Snow
3:53 AM 7.0 °F -11.6 °F 1.0 °F 77% 29.70 in 0.5 mi North 17.3 mph 28.8 mph 0.00 in Snow Snow
4:22 AM 7.0 °F -12.1 °F 1.0 °F 77% 29.71 in 1.0 mi North 18.4 mph 25.3 mph 0.00 in Snow Light Snow
4:36 AM 8.1 °F -7.7 °F 1.9 °F 76% 29.72 in 1.2 mi North 12.7 mph 26.5 mph 0.00 in Snow Light Snow
4:53 AM 8.1 °F -7.7 °F 1.9 °F 76% 29.73 in 1.0 mi North 12.7 mph - 0.00 in Snow Light Snow
5:07 AM 8.1 °F -7.0 °F 3.0 °F 80% 29.73 in 0.8 mi North 11.5 mph 19.6 mph 0.00 in Snow Light Snow
5:32 AM 9.0 °F -5.1 °F 3.9 °F 80% 29.73 in 1.0 mi North 10.4 mph - 0.00 in Snow Light Snow
5:49 AM 10.4 °F -4.1 °F 3.2 °F 73% 29.75 in 1.2 mi North 11.5 mph 19.6 mph 0.00 in Snow Light Snow
5:53 AM 10.0 °F -5.9 °F 3.9 °F 76% 29.77 in 1.2 mi North 13.8 mph 19.6 mph 0.00 in Snow Light Snow
6:23 AM 10.9 °F -4.1 °F 3.9 °F 73% 29.78 in 2.5 mi North 12.7 mph 21.9 mph 0.00 in Snow Light Snow
6:33 AM 10.9 °F -5.4 °F 3.9 °F 73% 29.78 in 3.0 mi North 15.0 mph 21.9 mph 0.00 in Snow Light Snow
6:53 AM 12.0 °F -3.4 °F 3.9 °F 70% 29.81 in 4.0 mi North 13.8 mph 23.0 mph 0.00 in Snow Light Snow
7:29 AM 12.0 °F -2.7 °F 5.0 °F 73% 29.83 in 2.0 mi North 12.7 mph 24.2 mph 0.00 in Snow Light Snow
7:41 AM 12.0 °F -5.1 °F 5.0 °F 73% 29.84 in 2.0 mi North 17.3 mph 24.2 mph 0.00 in Snow Light Snow
7:53 AM 12.9 °F -2.8 °F 6.1 °F 74% 29.87 in 2.0 mi North 15.0 mph 21.9 mph 0.00 in Snow Light Snow
8:22 AM 12.0 °F -4.5 °F 6.1 °F 77% 29.89 in 1.8 mi NW 16.1 mph 26.5 mph 0.00 in Snow Light Snow
8:53 AM 10.0 °F -6.5 °F 3.0 °F 73% 29.93 in 2.0 mi NNW 15.0 mph - 0.00 in Snow Light Snow
9:07 AM 10.0 °F -5.2 °F 3.0 °F 73% 29.93 in 4.0 mi NW 12.7 mph - 0.00 in Snow Light Snow
9:16 AM 10.9 °F -4.1 °F 3.0 °F 70% 29.93 in 4.0 mi NW 12.7 mph - 0.00 in Snow Light Snow
9:53 AM 12.0 °F 1.5 °F 3.0 °F 67% 29.96 in 3.0 mi NNW 6.9 mph 21.9 mph 0.00 in Snow Light Snow
10:53 AM 12.0 °F -2.7 °F 1.0 °F 61% 29.99 in 8.0 mi NNW 12.7 mph 20.7 mph 0.00 in Snow Light Snow
11:53 AM 12.0 °F -4.5 °F -2.0 °F 53% 30.03 in 10.0 mi NW 16.1 mph 21.9 mph 0.00 in   Mostly Cloudy
12:53 PM 12.0 °F -4.5 °F -2.9 °F 51% 30.07 in 9.0 mi NNW 16.1 mph 27.6 mph N/A   Partly Cloudy
1:53 PM 12.9 °F -4.4 °F -4.0 °F 47% 30.11 in 8.0 mi NNW 18.4 mph 26.5 mph 0.00 in   Clear
2:53 PM 12.9 °F -4.9 °F -5.1 °F 45% 30.18 in 8.0 mi NNW 19.6 mph 26.5 mph N/A   Clear
3:53 PM 12.0 °F -4.0 °F -8.0 °F 41% 30.23 in 10.0 mi NW 15.0 mph 24.2 mph 0.00 in   Clear
4:53 PM 9.0 °F -3.2 °F -7.1 °F 48% 30.27 in 10.0 mi North 8.1 mph - N/A   Clear
5:53 PM 8.1 °F -0.5 °F -7.1 °F 50% 30.33 in 10.0 mi NW 4.6 mph - N/A   Clear
6:53 PM 6.1 °F -6.8 °F -7.1 °F 55% 30.39 in 10.0 mi NW 8.1 mph - N/A   Clear
7:53 PM 5.0 °F -5.6 °F -7.1 °F 58% 30.42 in 10.0 mi NW 5.8 mph - N/A   Clear
8:53 PM 3.9 °F -5.3 °F -8.0 °F 58% 30.43 in 10.0 mi Variable 4.6 mph - N/A   Clear
9:53 PM 1.9 °F - -9.9 °F 58% 30.45 in 10.0 mi Calm Calm - N/A   Clear
10:53 PM -5.1 °F -13.6 °F -11.0 °F 76% 30.47 in 10.0 mi South 3.5 mph - N/A   Clear
11:53 PM -5.1 °F - -11.0 °F 76% 30.46 in 10.0 mi Calm Calm - N/A   Clear